| time (UTC) | temp C | wind direction | speed KPH | gust KPH | rain 1hr cm | rain 24hr cm | rain mn cm | humidity % | barometer mb |
| 20260505081240 | 31 | 319 | 0.0 | 0.0 | 0.00 | 0.00 | 0.00 | 50 | 1007.0 |
| 20260505080737 | 31 | 330 | 0.0 | 0.0 | 0.00 | 0.00 | 0.00 | 51 | 1007.0 |
| 20260505080232 | 31 | 319 | 0.0 | 0.0 | 0.00 | 0.00 | 0.00 | 52 | 1007.1 |
| 20260505075728 | 31 | 279 | 0.0 | 1.6 | 0.00 | 0.00 | 0.00 | 51 | 1007.0 |
| 20260505075226 | 32 | 350 | 0.0 | 0.0 | 0.00 | 0.00 | 0.00 | 54 | 1007.2 |
| 20260505074723 | 31 | 356 | 0.0 | 0.0 | 0.00 | 0.00 | 0.00 | 56 | 1007.3 |
| 20260505074220 | 31 | 26 | 0.0 | 0.0 | 0.00 | 0.00 | 0.00 | 56 | 1007.5 |
| 20260505073718 | 31 | 70 | 0.0 | 0.0 | 0.00 | 0.00 | 0.00 | 56 | 1007.6 |
| 20260505073215 | 31 | 81 | 0.0 | 0.0 | 0.00 | 0.00 | 0.00 | 56 | 1007.8 |
| 20260505072711 | 31 | 348 | 0.0 | 1.6 | 0.00 | 0.00 | 0.00 | 57 | 1007.9 |
| 20260505072208 | 30 | 15 | 0.0 | 0.0 | 0.00 | 0.00 | 0.00 | 56 | 1008.0 |
| 20260505071703 | 31 | 23 | 0.0 | 0.0 | 0.00 | 0.00 | 0.00 | 57 | 1007.9 |
| 20260505071201 | 31 | 341 | 0.0 | 0.0 | 0.00 | 0.00 | 0.00 | 57 | 1008.4 |
| 20260505070658 | 31 | 285 | 0.0 | 0.0 | 0.00 | 0.00 | 0.00 | 58 | 1008.2 |
| 20260505070154 | 30 | 305 | 0.0 | 0.0 | 0.00 | 0.00 | 0.00 | 63 | 1008.1 |
| 20260505065650 | 30 | 297 | 0.0 | 0.0 | 0.00 | 0.00 | 0.00 | 62 | 1008.4 |
| 20260505065147 | 30 | 310 | 0.0 | 0.0 | 0.00 | 0.00 | 0.00 | 63 | 1008.4 |
| 20260505064644 | 30 | 250 | 0.0 | 0.0 | 0.00 | 0.00 | 0.00 | 64 | 1008.4 |
| 20260505064142 | 30 | 320 | 0.0 | 0.0 | 0.00 | 0.00 | 0.00 | 65 | 1008.8 |
| 20260505063639 | 30 | 339 | 0.0 | 0.0 | 0.00 | 0.00 | 0.00 | 65 | 1008.9 |
| 20260505063136 | 30 | 351 | 0.0 | 0.0 | 0.00 | 0.00 | 0.00 | 64 | 1008.9 |
| 20260505062632 | 29 | 306 | 3.2 | 4.8 | 0.00 | 0.00 | 0.00 | 65 | 1008.9 |
| 20260505062129 | 30 | 334 | 0.0 | 0.0 | 0.00 | 0.00 | 0.00 | 65 | 1008.8 |
| 20260505061626 | 30 | 256 | 0.0 | 0.0 | 0.00 | 0.00 | 0.00 | 63 | 1009.0 |
| 20260505061125 | 30 | 267 | 0.0 | 0.0 | 0.00 | 0.00 | 0.00 | 63 | 1008.7 |
| 20260505060622 | 30 | 324 | 0.0 | 0.0 | 0.00 | 0.00 | 0.00 | 65 | 1008.9 |
| 20260505060118 | 29 | 349 | 0.0 | 0.0 | 0.00 | 0.00 | 0.00 | 65 | 1008.9 |
| 20260505055614 | 30 | 276 | 0.0 | 0.0 | 0.00 | 0.00 | 0.00 | 63 | 1009.0 |
| 20260505055110 | 30 | 311 | 0.0 | 0.0 | 0.00 | 0.00 | 0.00 | 61 | 1009.0 |
| 20260505054608 | 30 | 339 | 0.0 | 0.0 | 0.00 | 0.00 | 0.00 | 62 | 1009.2 |
| 20260505054106 | 30 | 322 | 0.0 | 0.0 | 0.00 | 0.00 | 0.00 | 65 | 1009.1 |
| 20260505053603 | 29 | 280 | 1.6 | 3.2 | 0.00 | 0.00 | 0.00 | 67 | 1009.3 |
| 20260505053059 | 28 | 3 | 0.0 | 0.0 | 0.00 | 0.00 | 0.00 | 69 | 1009.3 |
| 20260505052556 | 28 | 2 | 0.0 | 0.0 | 0.00 | 0.00 | 0.00 | 69 | 1009.2 |
| 20260505052054 | 28 | 309 | 0.0 | 0.0 | 0.00 | 0.00 | 0.00 | 70 | 1009.4 |
| 20260505051550 | 28 | 31 | 0.0 | 1.6 | 0.00 | 0.00 | 0.00 | 69 | 1009.2 |
| 20260505051048 | 29 | 284 | 0.0 | 0.0 | 0.00 | 0.00 | 0.00 | 69 | 1009.6 |
| 20260505050546 | 29 | 310 | 0.0 | 0.0 | 0.00 | 0.00 | 0.00 | 69 | 1009.4 |
| 20260505041514 | 27 | 324 | 0.0 | 0.0 | 0.00 | 0.00 | 0.00 | 72 | 1009.6 |
| 20260505041012 | 27 | 30 | 0.0 | 0.0 | 0.00 | 0.00 | 0.00 | 74 | 1009.6 |
| 20260505040509 | 26 | 247 | 0.0 | 1.6 | 0.00 | 0.00 | 0.00 | 75 | 1009.6 |
| 20260505040006 | 27 | 339 | 0.0 | 0.0 | 0.00 | 0.00 | 0.00 | 74 | 1009.9 |
| 20260505035501 | 26 | 277 | 0.0 | 0.0 | 0.00 | 0.00 | 0.00 | 75 | 1009.9 |
| 20260505034959 | 26 | 344 | 0.0 | 0.0 | 0.00 | 0.00 | 0.00 | 76 | 1009.5 |
| 20260505034455 | 26 | 340 | 3.2 | 4.8 | 0.00 | 0.00 | 0.00 | 75 | 1010.0 |
| 20260505033952 | 26 | 80 | 3.2 | 4.8 | 0.00 | 0.00 | 0.00 | 74 | 1009.7 |
| 20260505033449 | 26 | 286 | 1.6 | 3.2 | 0.00 | 0.00 | 0.00 | 74 | 1009.6 |
| 20260505032947 | 26 | 69 | 0.0 | 0.0 | 0.00 | 0.00 | 0.00 | 75 | 1009.5 |
| 20260505032444 | 26 | 345 | 0.0 | 0.0 | 0.00 | 0.00 | 0.00 | 75 | 1009.6 |
| 20260505031940 | 26 | 268 | 0.0 | 0.0 | 0.00 | 0.00 | 0.00 | 75 | 1009.4 |
| 20260505031438 | 26 | 258 | 0.0 | 0.0 | 0.00 | 0.00 | 0.00 | 75 | 1009.5 |
| 20260505030934 | 26 | 329 | 0.0 | 0.0 | 0.00 | 0.00 | 0.00 | 75 | 1009.3 |
| 20260505030430 | 25 | 232 | 0.0 | 1.6 | 0.00 | 0.00 | 0.00 | 75 | 1009.5 |
| 20260505025926 | 25 | 341 | 0.0 | 0.0 | 0.00 | 0.00 | 0.00 | 76 | 1009.6 |
| 20260505025423 | 25 | 266 | 0.0 | 0.0 | 0.00 | 0.00 | 0.00 | 76 | 1009.9 |
| 20260505024922 | 25 | 281 | 0.0 | 0.0 | 0.00 | 0.00 | 0.00 | 77 | 1009.7 |
| 20260505024419 | 25 | 257 | 1.6 | 3.2 | 0.00 | 0.00 | 0.00 | 77 | 1009.9 |
| 20260505023916 | 24 | 286 | 0.0 | 0.0 | 0.00 | 0.00 | 0.00 | 78 | 1009.6 |
| 20260505023413 | 24 | 280 | 0.0 | 0.0 | 0.00 | 0.00 | 0.00 | 77 | 1009.9 |
| 20260505022910 | 24 | 314 | 0.0 | 0.0 | 0.00 | 0.00 | 0.00 | 77 | 1009.6 |
| 20260505022408 | 24 | 341 | 0.0 | 0.0 | 0.00 | 0.00 | 0.00 | 77 | 1009.5 |
| 20260505021905 | 24 | 278 | 0.0 | 0.0 | 0.00 | 0.00 | 0.00 | 77 | 1009.5 |
| 20260505021401 | 24 | 341 | 0.0 | 0.0 | 0.00 | 0.00 | 0.00 | 79 | 1009.5 |
| 20260505020857 | 23 | 319 | 0.0 | 0.0 | 0.00 | 0.00 | 0.00 | 79 | 1009.5 |
| 20260505020353 | 23 | 247 | 0.0 | 1.6 | 0.00 | 0.00 | 0.00 | 80 | 1009.5 |
| 20260505015850 | 23 | 321 | 0.0 | 0.0 | 0.00 | 0.00 | 0.00 | 82 | 1009.6 |
| 20260505015347 | 23 | 328 | 0.0 | 0.0 | 0.00 | 0.00 | 0.00 | 83 | 1009.5 |
| 20260505014844 | 22 | 295 | 0.0 | 0.0 | 0.00 | 0.00 | 0.00 | 84 | 1009.4 |
| 20260505014341 | 22 | 273 | 0.0 | 0.0 | 0.00 | 0.00 | 0.00 | 84 | 1009.4 |
| 20260505013837 | 22 | 310 | 0.0 | 0.0 | 0.00 | 0.00 | 0.00 | 84 | 1009.5 |
| 20260505013335 | 22 | 294 | 0.0 | 0.0 | 0.00 | 0.00 | 0.00 | 84 | 1009.5 |
| 20260505012833 | 22 | 277 | 0.0 | 0.0 | 0.00 | 0.00 | 0.00 | 84 | 1009.4 |
| 20260505012331 | 22 | 258 | 0.0 | 0.0 | 0.00 | 0.00 | 0.00 | 84 | 1009.5 |
| 20260505011826 | 22 | 289 | 0.0 | 0.0 | 0.00 | 0.00 | 0.00 | 84 | 1009.4 |
| 20260505011323 | 22 | 317 | 0.0 | 0.0 | 0.00 | 0.00 | 0.00 | 84 | 1009.2 |
| 20260505010819 | 22 | 316 | 0.0 | 0.0 | 0.00 | 0.00 | 0.00 | 83 | 1008.9 |
| 20260505010315 | 22 | 343 | 0.0 | 0.0 | 0.00 | 0.00 | 0.00 | 83 | 1009.0 |
| 20260505005812 | 22 | 315 | 0.0 | 0.0 | 0.00 | 0.00 | 0.00 | 83 | 1009.1 |
| 20260505005309 | 22 | 309 | 0.0 | 0.0 | 0.00 | 0.00 | 0.00 | 83 | 1008.8 |
| 20260505004806 | 22 | 315 | 0.0 | 0.0 | 0.00 | 0.00 | 0.00 | 83 | 1008.7 |
| 20260505004302 | 22 | 315 | 0.0 | 0.0 | 0.00 | 0.00 | 0.00 | 83 | 1008.9 |
| 20260505003800 | 22 | 313 | 0.0 | 0.0 | 0.00 | 0.00 | 0.00 | 83 | 1008.9 |
| 20260505003257 | 22 | 325 | 0.0 | 0.0 | 0.00 | 0.00 | 0.00 | 82 | 1008.9 |
| 20260505002753 | 22 | 318 | 0.0 | 0.0 | 0.00 | 0.00 | 0.00 | 82 | 1009.0 |
| 20260505002251 | 22 | 309 | 0.0 | 0.0 | 0.00 | 0.00 | 0.00 | 82 | 1008.5 |
| 20260505001748 | 22 | 319 | 0.0 | 0.0 | 0.00 | 0.00 | 0.00 | 82 | 1008.9 |
| 20260505001246 | 22 | 345 | 0.0 | 0.0 | 0.00 | 0.00 | 0.00 | 81 | 1008.9 |
| 20260505000742 | 22 | 320 | 0.0 | 0.0 | 0.00 | 0.00 | 0.00 | 82 | 1008.9 |
| 20260505000240 | 22 | 312 | 0.0 | 0.0 | 0.00 | 0.00 | 0.00 | 81 | 1008.9 |
| 20260504235736 | 22 | 70 | 0.0 | 0.0 | 0.00 | 0.00 | 0.00 | 81 | 1008.8 |
| 20260504235233 | 22 | 319 | 0.0 | 0.0 | 0.00 | 0.00 | 0.00 | 81 | 1009.0 |
| 20260504234730 | 22 | 349 | 0.0 | 0.0 | 0.00 | 0.00 | 0.00 | 81 | 1008.8 |
| 20260504234227 | 22 | 326 | 0.0 | 0.0 | 0.00 | 0.00 | 0.00 | 81 | 1008.8 |
| 20260504233724 | 22 | 315 | 0.0 | 0.0 | 0.00 | 0.00 | 0.00 | 81 | 1008.7 |
| 20260504233219 | 22 | 124 | 0.0 | 0.0 | 0.00 | 0.00 | 0.00 | 81 | 1008.8 |
| 20260504232717 | 22 | 31 | 0.0 | 0.0 | 0.00 | 0.00 | 0.00 | 81 | 1008.4 |
| 20260504232214 | 22 | 14 | 0.0 | 0.0 | 0.00 | 0.00 | 0.00 | 80 | 1008.7 |
| 20260504231710 | 22 | 322 | 0.0 | 0.0 | 0.00 | 0.00 | 0.00 | 80 | 1008.5 |
| 20260504231207 | 22 | 158 | 0.0 | 0.0 | 0.00 | 0.00 | 0.00 | 80 | 1008.3 |
| 20260504230703 | 22 | 74 | 0.0 | 0.0 | 0.00 | 0.00 | 0.00 | 80 | 1008.3 |
| 20260504230202 | 22 | 192 | 0.0 | 0.0 | 0.00 | 0.00 | 0.00 | 80 | 1008.1 |
| 20260504225700 | 22 | 65 | 0.0 | 0.0 | 0.00 | 0.00 | 0.00 | 80 | 1008.3 |
| 20260504225155 | 22 | 177 | 0.0 | 1.6 | 0.00 | 0.00 | 0.00 | 80 | 1007.9 |
| 20260504224653 | 22 | 130 | 0.0 | 0.0 | 0.00 | 0.00 | 0.00 | 80 | 1008.2 |
| 20260504224149 | 22 | 148 | 0.0 | 0.0 | 0.00 | 0.00 | 0.00 | 81 | 1008.0 |
| 20260504223647 | 22 | 359 | 0.0 | 0.0 | 0.00 | 0.00 | 0.00 | 81 | 1008.1 |
| 20260504223142 | 22 | 347 | 0.0 | 0.0 | 0.00 | 0.00 | 0.00 | 81 | 1007.9 |
| 20260504222639 | 22 | 341 | 0.0 | 0.0 | 0.00 | 0.00 | 0.00 | 81 | 1007.9 |
| 20260504222136 | 22 | 48 | 0.0 | 0.0 | 0.00 | 0.00 | 0.00 | 82 | 1007.8 |
| 20260504221634 | 22 | 322 | 0.0 | 0.0 | 0.00 | 0.00 | 0.00 | 82 | 1007.7 |
| 20260504221131 | 22 | 99 | 0.0 | 0.0 | 0.00 | 0.00 | 0.00 | 82 | 1007.7 |
| 20260504220627 | 22 | 312 | 0.0 | 0.0 | 0.00 | 0.00 | 0.00 | 82 | 1007.8 |
| 20260504220125 | 22 | 312 | 0.0 | 0.0 | 0.00 | 0.00 | 0.00 | 82 | 1007.9 |
| 20260504215621 | 22 | 320 | 0.0 | 0.0 | 0.00 | 0.00 | 0.00 | 83 | 1007.8 |
| 20260504215118 | 22 | 257 | 0.0 | 0.0 | 0.00 | 0.00 | 0.00 | 82 | 1008.2 |
| 20260504214614 | 22 | 334 | 0.0 | 0.0 | 0.00 | 0.00 | 0.00 | 82 | 1008.2 |
| 20260504214110 | 22 | 328 | 0.0 | 0.0 | 0.00 | 0.00 | 0.00 | 82 | 1007.8 |
| 20260504213607 | 22 | 143 | 0.0 | 0.0 | 0.00 | 0.00 | 0.00 | 81 | 1008.0 |
| 20260504213104 | 22 | 16 | 0.0 | 0.0 | 0.00 | 0.00 | 0.00 | 81 | 1008.1 |
| 20260504212600 | 23 | 272 | 0.0 | 0.0 | 0.00 | 0.00 | 0.00 | 81 | 1007.9 |
| 20260504212057 | 23 | 309 | 0.0 | 0.0 | 0.00 | 0.00 | 0.00 | 81 | 1007.8 |
| 20260504211554 | 23 | 290 | 0.0 | 0.0 | 0.00 | 0.00 | 0.00 | 80 | 1007.9 |
| 20260504211051 | 23 | 307 | 0.0 | 0.0 | 0.00 | 0.00 | 0.00 | 81 | 1008.0 |
| 20260504210548 | 23 | 322 | 0.0 | 0.0 | 0.00 | 0.00 | 0.00 | 81 | 1008.1 |
| 20260504210045 | 23 | 308 | 0.0 | 0.0 | 0.00 | 0.00 | 0.00 | 80 | 1007.9 |
| 20260504205543 | 23 | 319 | 0.0 | 0.0 | 0.00 | 0.00 | 0.00 | 81 | 1008.0 |
| 20260504205040 | 23 | 320 | 0.0 | 0.0 | 0.00 | 0.00 | 0.00 | 81 | 1007.6 |
| 20260504204538 | 23 | 338 | 0.0 | 0.0 | 0.00 | 0.00 | 0.00 | 81 | 1007.8 |
| 20260504204037 | 23 | 274 | 0.0 | 0.0 | 0.00 | 0.00 | 0.00 | 80 | 1008.0 |
| 20260504203535 | 23 | 321 | 0.0 | 0.0 | 0.00 | 0.00 | 0.00 | 80 | 1007.8 |
| 20260504203032 | 23 | 281 | 0.0 | 0.0 | 0.00 | 0.00 | 0.00 | 80 | 1007.8 |
| 20260504202527 | 23 | 232 | 1.6 | 3.2 | 0.00 | 0.00 | 0.00 | 79 | 1007.7 |
| 20260504202024 | 23 | 337 | 0.0 | 0.0 | 0.00 | 0.00 | 0.00 | 79 | 1007.6 |
| 20260504201521 | 23 | 256 | 0.0 | 0.0 | 0.00 | 0.00 | 0.00 | 79 | 1007.6 |
| 20260504201019 | 23 | 329 | 0.0 | 0.0 | 0.00 | 0.00 | 0.00 | 79 | 1007.5 |
| 20260504200515 | 23 | 292 | 0.0 | 0.0 | 0.00 | 0.00 | 0.00 | 78 | 1007.3 |
| 20260504200012 | 23 | 243 | 0.0 | 0.0 | 0.00 | 0.00 | 0.00 | 78 | 1007.5 |
| 20260504195508 | 23 | 289 | 0.0 | 0.0 | 0.00 | 0.00 | 0.00 | 78 | 1007.3 |
| 20260504195005 | 23 | 311 | 0.0 | 0.0 | 0.00 | 0.00 | 0.00 | 78 | 1007.5 |
| 20260504194501 | 23 | 301 | 0.0 | 0.0 | 0.00 | 0.00 | 0.00 | 78 | 1007.8 |
| 20260504193957 | 23 | 311 | 0.0 | 0.0 | 0.00 | 0.00 | 0.00 | 78 | 1007.9 |
| 20260504193454 | 23 | 338 | 0.0 | 0.0 | 0.00 | 0.00 | 0.00 | 78 | 1007.9 |
| 20260504192953 | 23 | 314 | 0.0 | 0.0 | 0.00 | 0.00 | 0.00 | 78 | 1007.9 |
| 20260504192449 | 23 | 317 | 0.0 | 0.0 | 0.00 | 0.00 | 0.00 | 79 | 1007.9 |
| 20260504191949 | 23 | 292 | 0.0 | 0.0 | 0.00 | 0.00 | 0.00 | 79 | 1007.6 |
| 20260504191446 | 23 | 305 | 0.0 | 0.0 | 0.00 | 0.00 | 0.00 | 79 | 1008.0 |
| 20260504190941 | 23 | 295 | 0.0 | 0.0 | 0.00 | 0.00 | 0.00 | 79 | 1007.9 |
| 20260504190437 | 23 | 304 | 0.0 | 0.0 | 0.00 | 0.00 | 0.00 | 79 | 1008.1 |
| 20260504185934 | 23 | 326 | 0.0 | 0.0 | 0.00 | 0.00 | 0.00 | 79 | 1008.0 |
| 20260504185432 | 23 | 318 | 0.0 | 0.0 | 0.00 | 0.00 | 0.00 | 79 | 1007.9 |
| 20260504184927 | 23 | 341 | 0.0 | 0.0 | 0.00 | 0.00 | 0.00 | 79 | 1008.0 |
| 20260504184423 | 23 | 30 | 0.0 | 0.0 | 0.00 | 0.00 | 0.00 | 79 | 1008.2 |
| 20260504183919 | 23 | 204 | 0.0 | 0.0 | 0.00 | 0.00 | 0.00 | 79 | 1008.4 |
| 20260504183417 | 23 | 310 | 0.0 | 0.0 | 0.00 | 0.00 | 0.00 | 79 | 1008.3 |
| 20260504182915 | 23 | 278 | 0.0 | 0.0 | 0.00 | 1.04 | 1.04 | 78 | 1008.4 |
| 20260504182411 | 23 | 186 | 0.0 | 0.0 | 0.00 | 1.04 | 1.04 | 78 | 1008.7 |
| 20260504181908 | 23 | 330 | 0.0 | 0.0 | 0.00 | 1.04 | 1.04 | 78 | 1008.7 |
| 20260504181405 | 23 | 271 | 0.0 | 0.0 | 0.00 | 1.04 | 1.04 | 78 | 1008.5 |
| 20260504180904 | 23 | 298 | 0.0 | 0.0 | 0.00 | 1.04 | 1.04 | 77 | 1008.8 |
| 20260504180402 | 23 | 129 | 0.0 | 0.0 | 0.00 | 1.04 | 1.04 | 77 | 1008.8 |
| 20260504175900 | 23 | 309 | 0.0 | 0.0 | 0.00 | 1.04 | 1.04 | 78 | 1009.1 |
| 20260504175356 | 23 | 326 | 0.0 | 0.0 | 0.00 | 1.04 | 1.04 | 77 | 1008.9 |
| 20260504174855 | 24 | 43 | 0.0 | 0.0 | 0.00 | 1.04 | 1.04 | 76 | 1008.8 |
| 20260504174352 | 24 | 309 | 0.0 | 0.0 | 0.00 | 1.04 | 1.04 | 75 | 1008.7 |
| 20260504173849 | 25 | 326 | 0.0 | 0.0 | 0.00 | 1.04 | 1.04 | 73 | 1008.8 |
| 20260504173345 | 25 | 312 | 0.0 | 0.0 | 0.00 | 1.04 | 1.04 | 70 | 1009.0 |
| 20260504172843 | 25 | 156 | 1.6 | 4.8 | 0.00 | 1.04 | 1.04 | 69 | 1008.8 |
| 20260504172339 | 25 | 122 | 3.2 | 8.0 | 0.00 | 1.04 | 1.04 | 69 | 1008.4 |
| 20260504171835 | 25 | 136 | 0.0 | 0.0 | 0.00 | 1.04 | 1.04 | 70 | 1008.3 |
| 20260504171332 | 25 | 219 | 0.0 | 0.0 | 0.00 | 1.04 | 1.04 | 72 | 1008.5 |
| 20260504170830 | 24 | 179 | 0.0 | 0.0 | 0.00 | 1.04 | 1.04 | 72 | 1008.1 |
| 20260504170326 | 24 | 197 | 0.0 | 0.0 | 0.00 | 1.04 | 1.04 | 72 | 1008.2 |
| 20260504160244 | 23 | 156 | 1.6 | 3.2 | 0.00 | 1.04 | 1.04 | 75 | 1008.2 |
| 20260504150710 | 24 | 119 | 0.0 | 0.0 | 0.00 | 1.04 | 1.04 | 75 | 1008.0 |
| 20260504150207 | 24 | 144 | 1.6 | 3.2 | 0.00 | 1.04 | 1.04 | 74 | 1007.8 |
| 20260504141136 | 24 | 121 | 0.0 | 0.0 | 0.00 | 1.04 | 1.04 | 78 | 1007.1 |
| 20260504140633 | 23 | 165 | 4.8 | 9.7 | 0.00 | 1.04 | 1.04 | 79 | 1007.1 |
| 20260504140128 | 23 | 198 | 4.8 | 8.0 | 0.00 | 1.04 | 1.04 | 82 | 1006.9 |
| 20260504130556 | 22 | 110 | 8.0 | 11.3 | 0.13 | 0.94 | 0.94 | 92 | 1005.9 |
| 20260504110444 | 32 | 308 | 0.0 | 0.0 | 0.00 | 0.56 | 0.56 | 46 | 1004.3 |
| 20260504100407 | 32 | 291 | 3.2 | 8.0 | 0.00 | 0.56 | 0.56 | 48 | 1004.6 |
| 20260504081800 | 32 | 306 | 0.0 | 0.0 | 0.00 | 0.56 | 0.56 | 53 | 1006.3 |